SBU212 TFFG-TFFF

Flight info

Callsign SBU212
Flight time 2h 33m
Altitude 7000
Route ZPATA A517 PPR A312 DOM DCT KAREX
Aircraft C208/L-SDFGR/C

Departure

Time 2026-05-05 18:12
Airport Grand Case-l'Espérance Airport (TFFG)

Arrival

Time 2026-05-05 20:45
Airport Martinique Aimé Césaire International Airport (TFFF)
Time Latitude Longitude Altitude Speed Heading
2026-05-05 18:06 18.10145 -63.04826 11 ft 0 kts 155°
2026-05-05 18:08 18.10138 -63.04823 11 ft 4 kts 172°
2026-05-05 18:09 18.10124 -63.04862 11 ft 8 kts 273°
2026-05-05 18:09 18.10075 -63.04885 11 ft 11 kts 200°
2026-05-05 18:09 18.10079 -63.04982 11 ft 18 kts 289°
2026-05-05 18:09 18.10119 -63.05133 12 ft 23 kts 284°
2026-05-05 18:10 18.10144 -63.05250 11 ft 7 kts 292°
2026-05-05 18:10 18.10153 -63.05244 11 ft 1 kts 115°
2026-05-05 18:10 18.10153 -63.05243 11 ft 0 kts 114°
2026-05-05 18:11 18.10115 -63.05116 12 ft 41 kts 107°
2026-05-05 18:11 18.09992 -63.04692 53 ft 73 kts 106°
2026-05-05 18:11 18.09876 -63.04147 239 ft 77 kts 106°
2026-05-05 18:11 18.09788 -63.03652 586 ft 67 kts 98°
2026-05-05 18:12 18.09647 -63.03145 849 ft 72 kts 116°
2026-05-05 18:12 18.09339 -63.02668 1013 ft 87 kts 118°
2026-05-05 18:12 18.08945 -63.02111 1218 ft 102 kts 129°
2026-05-05 18:12 18.08449 -63.01573 1347 ft 104 kts 131°
2026-05-05 18:13 18.07951 -63.01008 1588 ft 104 kts 123°
2026-05-05 18:13 18.07682 -63.00329 1797 ft 101 kts 105°
2026-05-05 18:13 18.07360 -62.99607 1789 ft 114 kts 124°
2026-05-05 18:13 18.06800 -62.98959 1743 ft 127 kts 137°
2026-05-05 18:14 18.06064 -62.98406 1731 ft 134 kts 148°
2026-05-05 18:14 18.05205 -62.97963 1646 ft 145 kts 155°
2026-05-05 18:14 18.04229 -62.97563 1459 ft 153 kts 153°
2026-05-05 18:14 18.03226 -62.97149 1328 ft 156 kts 155°
2026-05-05 18:15 18.02215 -62.96761 1270 ft 153 kts 156°
2026-05-05 18:15 18.01221 -62.96402 1218 ft 149 kts 156°
2026-05-05 18:15 18.00253 -62.96058 1181 ft 145 kts 157°
2026-05-05 18:15 17.99309 -62.95704 1180 ft 143 kts 156°
2026-05-05 18:16 17.98406 -62.95290 1173 ft 140 kts 150°
2026-05-05 18:16 17.97554 -62.94810 1169 ft 138 kts 147°
2026-05-05 18:16 17.96732 -62.94312 1164 ft 136 kts 146°
2026-05-05 18:16 17.95906 -62.93824 1181 ft 137 kts 146°
2026-05-05 18:17 17.95083 -62.93327 1166 ft 136 kts 144°
2026-05-05 18:17 17.94268 -62.92833 1172 ft 135 kts 146°
2026-05-05 18:17 17.93472 -62.92309 1172 ft 135 kts 144°
2026-05-05 18:17 17.92689 -62.91784 1171 ft 133 kts 144°
2026-05-05 18:18 17.91905 -62.91266 1185 ft 134 kts 144°
2026-05-05 18:18 17.91114 -62.90739 1172 ft 135 kts 144°
2026-05-05 18:18 17.90350 -62.90217 1168 ft 120 kts 141°
2026-05-05 18:18 17.90069 -62.89538 1147 ft 99 kts 84°
2026-05-05 18:19 17.90195 -62.88876 1174 ft 88 kts 82°
2026-05-05 18:19 17.90348 -62.88262 1178 ft 86 kts 81°
2026-05-05 18:19 17.90461 -62.87619 1049 ft 93 kts 86°
2026-05-05 18:19 17.90468 -62.86955 966 ft 91 kts 94°
2026-05-05 18:20 17.90414 -62.86302 782 ft 90 kts 95°
2026-05-05 18:20 17.90407 -62.85645 550 ft 90 kts 91°
2026-05-05 18:20 17.90436 -62.85023 361 ft 78 kts 95°
2026-05-05 18:20 17.90435 -62.84459 43 ft 69 kts 94°
2026-05-05 18:21 17.90443 -62.84141 20 ft 21 kts 86°
2026-05-05 18:21 17.90446 -62.84069 14 ft 3 kts 217°
2026-05-05 18:21 17.90444 -62.84111 17 ft 8 kts 266°
2026-05-05 18:21 17.90443 -62.84184 24 ft 13 kts 269°
2026-05-05 18:22 17.90440 -62.84312 33 ft 21 kts 266°
2026-05-05 18:22 17.90411 -62.84388 38 ft 8 kts 191°
2026-05-05 18:22 17.90393 -62.84452 42 ft 11 kts 269°
2026-05-05 18:22 17.90388 -62.84536 48 ft 9 kts 228°
2026-05-05 18:23 17.90371 -62.84529 48 ft 2 kts 81°
2026-05-05 18:23 17.90371 -62.84527 47 ft 0 kts 82°
2026-05-05 18:47 17.90388 -62.84517 47 ft 8 kts 319°
2026-05-05 18:47 17.90389 -62.84582 51 ft 11 kts 267°
2026-05-05 18:48 17.90398 -62.84631 53 ft 9 kts 304°
2026-05-05 18:48 17.90430 -62.84651 53 ft 2 kts 57°
2026-05-05 18:48 17.90431 -62.84646 53 ft 0 kts 84°
2026-05-05 18:49 17.90434 -62.84538 44 ft 40 kts 88°
2026-05-05 18:49 17.90446 -62.84084 53 ft 78 kts 89°
2026-05-05 18:49 17.90669 -62.83545 231 ft 92 kts 39°
2026-05-05 18:50 17.91215 -62.83275 513 ft 82 kts 33°
2026-05-05 18:50 17.91825 -62.83018 637 ft 100 kts 29°
2026-05-05 18:50 17.92462 -62.82728 892 ft 104 kts 27°
2026-05-05 18:50 17.93206 -62.82422 952 ft 122 kts 30°
2026-05-05 18:51 17.93971 -62.82067 1202 ft 118 kts 33°
2026-05-05 18:51 17.94592 -62.81587 1454 ft 106 kts 71°
2026-05-05 18:51 17.94746 -62.80860 1714 ft 100 kts 92°
2026-05-05 18:51 17.94531 -62.80196 1949 ft 98 kts 126°
2026-05-05 18:52 17.93967 -62.79804 2181 ft 101 kts 157°
2026-05-05 18:52 17.93255 -62.79803 2420 ft 104 kts 177°
2026-05-05 18:52 17.92552 -62.79856 2663 ft 99 kts 176°
2026-05-05 18:52 17.91876 -62.79898 2948 ft 97 kts 180°
2026-05-05 18:53 17.91173 -62.79937 3128 ft 103 kts 176°
2026-05-05 18:53 17.90440 -62.79984 3395 ft 109 kts 177°
2026-05-05 18:53 17.89672 -62.80027 3689 ft 113 kts 175°
2026-05-05 18:53 17.88883 -62.80093 3913 ft 114 kts 179°
2026-05-05 18:54 17.88089 -62.80175 4111 ft 115 kts 179°
2026-05-05 18:54 17.87301 -62.80244 4305 ft 116 kts 178°
2026-05-05 18:54 17.86495 -62.80306 4500 ft 117 kts 177°
2026-05-05 18:54 17.85684 -62.80367 4692 ft 117 kts 178°
2026-05-05 18:55 17.84872 -62.80428 4883 ft 117 kts 178°
2026-05-05 18:55 17.84063 -62.80489 5077 ft 116 kts 177°
2026-05-05 18:55 17.83256 -62.80550 5263 ft 116 kts 177°
2026-05-05 18:55 17.82451 -62.80611 5457 ft 116 kts 178°
2026-05-05 18:56 17.81652 -62.80670 5650 ft 115 kts 178°
2026-05-05 18:56 17.80856 -62.80730 5839 ft 114 kts 178°
2026-05-05 18:56 17.80064 -62.80790 6037 ft 114 kts 177°
2026-05-05 18:56 17.79275 -62.80848 6238 ft 113 kts 177°
2026-05-05 18:57 17.78489 -62.80909 6436 ft 113 kts 177°
2026-05-05 18:57 17.77708 -62.80966 6621 ft 112 kts 178°
2026-05-05 18:57 17.76943 -62.81025 6804 ft 109 kts 177°
2026-05-05 18:57 17.76195 -62.81082 6963 ft 109 kts 178°
2026-05-05 18:58 17.75390 -62.81139 6986 ft 122 kts 179°
2026-05-05 18:58 17.74502 -62.81207 7004 ft 133 kts 180°
2026-05-05 18:58 17.73551 -62.81289 6997 ft 141 kts 181°
2026-05-05 18:58 17.72559 -62.81375 6995 ft 145 kts 180°
2026-05-05 18:59 17.71537 -62.81460 6992 ft 149 kts 180°
2026-05-05 18:59 17.70493 -62.81545 6992 ft 151 kts 179°
2026-05-05 18:59 17.69440 -62.81629 6993 ft 153 kts 180°
2026-05-05 18:59 17.68373 -62.81710 6992 ft 155 kts 181°
2026-05-05 19:00 17.67300 -62.81794 6990 ft 154 kts 178°
2026-05-05 19:00 17.66227 -62.81870 6994 ft 155 kts 179°
2026-05-05 19:00 17.65151 -62.81952 6998 ft 155 kts 180°
2026-05-05 19:00 17.64085 -62.82038 6994 ft 155 kts 179°
2026-05-05 19:01 17.63007 -62.82119 6997 ft 156 kts 180°
2026-05-05 19:01 17.61922 -62.82202 7000 ft 156 kts 179°
2026-05-05 19:01 17.60837 -62.82287 6995 ft 156 kts 179°
2026-05-05 19:01 17.59756 -62.82368 6997 ft 156 kts 179°
2026-05-05 19:02 17.58675 -62.82449 6993 ft 156 kts 180°
2026-05-05 19:02 17.57595 -62.82529 7010 ft 156 kts 181°
2026-05-05 19:02 17.56513 -62.82611 7007 ft 156 kts 181°
2026-05-05 19:02 17.55437 -62.82694 7012 ft 155 kts 180°
2026-05-05 19:03 17.54363 -62.82774 7013 ft 155 kts 181°
2026-05-05 19:03 17.53290 -62.82854 7013 ft 155 kts 180°
2026-05-05 19:03 17.52218 -62.82936 7010 ft 155 kts 180°
2026-05-05 19:03 17.51147 -62.83018 7016 ft 154 kts 180°
2026-05-05 19:04 17.50076 -62.83099 7010 ft 154 kts 179°
2026-05-05 19:04 17.49007 -62.83178 7013 ft 154 kts 179°
2026-05-05 19:04 17.47939 -62.83258 7013 ft 154 kts 179°
2026-05-05 19:04 17.46898 -62.83124 7013 ft 151 kts 154°
2026-05-05 19:05 17.45961 -62.82632 7016 ft 151 kts 152°
2026-05-05 19:05 17.45010 -62.82147 7020 ft 153 kts 152°
2026-05-05 19:05 17.44047 -62.81667 7017 ft 154 kts 153°
2026-05-05 19:05 17.43080 -62.81186 7011 ft 154 kts 152°
2026-05-05 19:06 17.42116 -62.80703 7011 ft 153 kts 152°
2026-05-05 19:06 17.41151 -62.80219 7014 ft 154 kts 152°
2026-05-05 19:06 17.40184 -62.79736 7007 ft 155 kts 152°
2026-05-05 19:06 17.39220 -62.79256 6994 ft 156 kts 152°
2026-05-05 19:07 17.38243 -62.78767 6982 ft 155 kts 153°
2026-05-05 19:07 17.37274 -62.78282 6982 ft 154 kts 152°
2026-05-05 19:07 17.36311 -62.77800 6988 ft 154 kts 152°
2026-05-05 19:07 17.35346 -62.77316 6990 ft 154 kts 152°
2026-05-05 19:08 17.34386 -62.76831 6980 ft 153 kts 152°
2026-05-05 19:08 17.33432 -62.76350 6999 ft 152 kts 152°
2026-05-05 19:08 17.32468 -62.75863 7017 ft 156 kts 153°
2026-05-05 19:08 17.31481 -62.75382 6995 ft 157 kts 153°
2026-05-05 19:09 17.30494 -62.74894 6984 ft 156 kts 153°
2026-05-05 19:09 17.29537 -62.74361 6999 ft 156 kts 142°
2026-05-05 19:09 17.28796 -62.73537 6990 ft 155 kts 128°
2026-05-05 19:09 17.28105 -62.72673 6978 ft 154 kts 130°
2026-05-05 19:10 17.27399 -62.71846 6976 ft 151 kts 131°
2026-05-05 19:10 17.26696 -62.71032 6980 ft 150 kts 131°
2026-05-05 19:10 17.26002 -62.70226 6983 ft 149 kts 131°
2026-05-05 19:10 17.25310 -62.69420 6986 ft 149 kts 131°
2026-05-05 19:11 17.24621 -62.68616 6990 ft 148 kts 131°
2026-05-05 19:11 17.23945 -62.67823 6989 ft 148 kts 130°
2026-05-05 19:11 17.23251 -62.67005 6989 ft 149 kts 130°
2026-05-05 19:11 17.22572 -62.66206 6989 ft 149 kts 130°
2026-05-05 19:12 17.21879 -62.65394 7004 ft 151 kts 131°
2026-05-05 19:12 17.21178 -62.64571 6994 ft 152 kts 130°
2026-05-05 19:12 17.20479 -62.63748 6987 ft 151 kts 131°
2026-05-05 19:12 17.19785 -62.62929 6985 ft 150 kts 131°
2026-05-05 19:13 17.19092 -62.62113 6986 ft 150 kts 131°
2026-05-05 19:13 17.18399 -62.61299 7003 ft 150 kts 131°
2026-05-05 19:13 17.17702 -62.60487 6988 ft 150 kts 131°
2026-05-05 19:13 17.17013 -62.59676 6976 ft 148 kts 131°
2026-05-05 19:14 17.16335 -62.58879 6965 ft 145 kts 131°
2026-05-05 19:14 17.15674 -62.58109 6980 ft 142 kts 133°
2026-05-05 19:14 17.14992 -62.57338 6993 ft 146 kts 130°
2026-05-05 19:14 17.14327 -62.56526 6984 ft 148 kts 130°
2026-05-05 19:15 17.13654 -62.55707 6985 ft 149 kts 130°
2026-05-05 19:15 17.12965 -62.54887 6997 ft 151 kts 131°
2026-05-05 19:15 17.12262 -62.54057 6986 ft 153 kts 131°
2026-05-05 19:15 17.11555 -62.53229 6982 ft 153 kts 131°
2026-05-05 19:16 17.10851 -62.52406 6986 ft 151 kts 131°
2026-05-05 19:16 17.10150 -62.51590 6986 ft 151 kts 131°
2026-05-05 19:16 17.09452 -62.50774 6986 ft 150 kts 131°
2026-05-05 19:16 17.08756 -62.49960 6986 ft 150 kts 129°
2026-05-05 19:17 17.08064 -62.49150 6985 ft 148 kts 129°
2026-05-05 19:17 17.07381 -62.48345 6985 ft 148 kts 129°
2026-05-05 19:17 17.06699 -62.47541 6984 ft 148 kts 129°
2026-05-05 19:17 17.06015 -62.46735 6984 ft 148 kts 130°
2026-05-05 19:18 17.05327 -62.45930 6982 ft 149 kts 130°
2026-05-05 19:18 17.04639 -62.45129 6980 ft 147 kts 129°
2026-05-05 19:18 17.03962 -62.44331 6976 ft 147 kts 130°
2026-05-05 19:18 17.03286 -62.43532 6975 ft 147 kts 130°
2026-05-05 19:19 17.02611 -62.42735 6981 ft 146 kts 129°
2026-05-05 19:19 17.01939 -62.41946 6980 ft 145 kts 130°
2026-05-05 19:19 17.01267 -62.41156 6982 ft 145 kts 129°
2026-05-05 19:19 17.00608 -62.40385 6982 ft 144 kts 129°
2026-05-05 19:20 16.99941 -62.39606 6978 ft 144 kts 130°
2026-05-05 19:20 16.99277 -62.38822 6980 ft 144 kts 129°
2026-05-05 19:20 16.98613 -62.38042 6979 ft 143 kts 129°
2026-05-05 19:20 16.97952 -62.37268 6979 ft 142 kts 129°
2026-05-05 19:21 16.97293 -62.36498 6976 ft 142 kts 129°
2026-05-05 19:21 16.96639 -62.35726 6975 ft 142 kts 129°
2026-05-05 19:21 16.95982 -62.34948 6976 ft 143 kts 129°
2026-05-05 19:21 16.95320 -62.34172 6978 ft 143 kts 129°
2026-05-05 19:22 16.94657 -62.33399 6977 ft 143 kts 129°
2026-05-05 19:22 16.93993 -62.32622 6972 ft 144 kts 130°
2026-05-05 19:22 16.93325 -62.31838 6973 ft 145 kts 130°
2026-05-05 19:22 16.92653 -62.31051 6975 ft 145 kts 130°
2026-05-05 19:23 16.91978 -62.30261 6980 ft 146 kts 129°
2026-05-05 19:23 16.91299 -62.29471 6981 ft 146 kts 129°
2026-05-05 19:23 16.90621 -62.28676 6978 ft 148 kts 129°
2026-05-05 19:23 16.89937 -62.27871 6979 ft 148 kts 129°
2026-05-05 19:24 16.89250 -62.27070 6976 ft 148 kts 129°
2026-05-05 19:24 16.88563 -62.26269 6972 ft 149 kts 130°
2026-05-05 19:24 16.87874 -62.25463 6973 ft 148 kts 129°
2026-05-05 19:24 16.87187 -62.24662 6988 ft 148 kts 129°
2026-05-05 19:25 16.86499 -62.23860 6984 ft 149 kts 130°
2026-05-05 19:25 16.85813 -62.23056 6986 ft 148 kts 129°
2026-05-05 19:25 16.85132 -62.22257 6994 ft 147 kts 129°
2026-05-05 19:25 16.84456 -62.21467 6993 ft 148 kts 129°
2026-05-05 19:26 16.83769 -62.20664 6989 ft 149 kts 129°
2026-05-05 19:26 16.83079 -62.19855 6989 ft 149 kts 129°
2026-05-05 19:26 16.82386 -62.19046 6990 ft 149 kts 129°
2026-05-05 19:26 16.81698 -62.18242 6992 ft 148 kts 128°
2026-05-05 19:27 16.81009 -62.17436 6992 ft 149 kts 129°
2026-05-05 19:27 16.80316 -62.16631 6988 ft 149 kts 129°
2026-05-05 19:27 16.79624 -62.15823 6988 ft 149 kts 129°
2026-05-05 19:27 16.78939 -62.15024 6988 ft 147 kts 128°
2026-05-05 19:28 16.78257 -62.14226 6988 ft 147 kts 128°
2026-05-05 19:28 16.77577 -62.13429 6987 ft 147 kts 129°
2026-05-05 19:28 16.76896 -62.12633 6987 ft 147 kts 129°
2026-05-05 19:28 16.76212 -62.11834 6989 ft 148 kts 129°
2026-05-05 19:29 16.75529 -62.11037 6992 ft 147 kts 128°
2026-05-05 19:29 16.74848 -62.10239 6990 ft 148 kts 129°
2026-05-05 19:29 16.74163 -62.09436 6991 ft 148 kts 129°
2026-05-05 19:29 16.73474 -62.08632 6991 ft 149 kts 129°
2026-05-05 19:30 16.72783 -62.07826 6987 ft 149 kts 129°
2026-05-05 19:30 16.72090 -62.07019 6987 ft 149 kts 128°
2026-05-05 19:30 16.71399 -62.06212 6985 ft 150 kts 130°
2026-05-05 19:30 16.70705 -62.05400 6983 ft 150 kts 130°
2026-05-05 19:31 16.70011 -62.04588 6982 ft 150 kts 130°
2026-05-05 19:31 16.69324 -62.03785 6982 ft 150 kts 130°
2026-05-05 19:31 16.68627 -62.02972 6982 ft 151 kts 130°
2026-05-05 19:31 16.67927 -62.02156 6982 ft 151 kts 130°
2026-05-05 19:32 16.67225 -62.01339 6982 ft 151 kts 130°
2026-05-05 19:32 16.66524 -62.00521 6980 ft 151 kts 130°
2026-05-05 19:32 16.65823 -61.99703 6978 ft 151 kts 130°
2026-05-05 19:32 16.65120 -61.98884 6977 ft 151 kts 130°
2026-05-05 19:33 16.64419 -61.98067 6971 ft 151 kts 130°
2026-05-05 19:33 16.63718 -61.97249 6971 ft 151 kts 130°
2026-05-05 19:33 16.63016 -61.96432 6970 ft 151 kts 130°
2026-05-05 19:33 16.62315 -61.95615 6969 ft 151 kts 130°
2026-05-05 19:34 16.61612 -61.94796 6968 ft 151 kts 130°
2026-05-05 19:34 16.60911 -61.93978 6967 ft 151 kts 130°
2026-05-05 19:34 16.60210 -61.93161 6966 ft 151 kts 130°
2026-05-05 19:35 16.58807 -61.91531 6961 ft 151 kts 129°
2026-05-05 19:35 16.58109 -61.90720 6961 ft 149 kts 128°
2026-05-05 19:35 16.57419 -61.89918 6958 ft 148 kts 129°
2026-05-05 19:35 16.56729 -61.89113 6958 ft 149 kts 129°
2026-05-05 19:36 16.56037 -61.88313 6958 ft 148 kts 128°
2026-05-05 19:36 16.55352 -61.87511 6957 ft 148 kts 129°
2026-05-05 19:36 16.54665 -61.86705 6958 ft 149 kts 129°
2026-05-05 19:36 16.54210 -61.86171 6959 ft 149 kts 129°
2026-05-05 19:37 16.53516 -61.85360 6960 ft 150 kts 130°
2026-05-05 19:37 16.52815 -61.84547 6961 ft 151 kts 129°
2026-05-05 19:37 16.52115 -61.83739 6959 ft 150 kts 129°
2026-05-05 19:37 16.51422 -61.82935 6956 ft 149 kts 129°
2026-05-05 19:38 16.50734 -61.82130 6956 ft 148 kts 129°
2026-05-05 19:38 16.50046 -61.81328 6959 ft 148 kts 129°
2026-05-05 19:38 16.49361 -61.80533 6956 ft 147 kts 129°
2026-05-05 19:38 16.48680 -61.79739 6957 ft 147 kts 129°
2026-05-05 19:39 16.47998 -61.78943 6957 ft 148 kts 129°
2026-05-05 19:39 16.47312 -61.78145 6958 ft 149 kts 130°
2026-05-05 19:39 16.46620 -61.77340 6959 ft 150 kts 129°
2026-05-05 19:39 16.45923 -61.76535 6959 ft 149 kts 129°
2026-05-05 19:40 16.45227 -61.75729 6959 ft 150 kts 129°
2026-05-05 19:40 16.44528 -61.74916 6960 ft 151 kts 129°
2026-05-05 19:40 16.43829 -61.74106 6959 ft 150 kts 129°
2026-05-05 19:40 16.43131 -61.73291 6958 ft 151 kts 129°
2026-05-05 19:41 16.42428 -61.72474 6960 ft 151 kts 129°
2026-05-05 19:41 16.41729 -61.71665 6958 ft 150 kts 129°
2026-05-05 19:41 16.41031 -61.70855 6958 ft 151 kts 129°
2026-05-05 19:41 16.40332 -61.70042 6961 ft 151 kts 129°
2026-05-05 19:42 16.39632 -61.69230 6960 ft 150 kts 129°
2026-05-05 19:42 16.38945 -61.68435 6957 ft 149 kts 129°
2026-05-05 19:42 16.38255 -61.67634 6956 ft 148 kts 129°
2026-05-05 19:42 16.37565 -61.66830 6956 ft 149 kts 129°
2026-05-05 19:43 16.36874 -61.66020 6958 ft 150 kts 129°
2026-05-05 19:43 16.36180 -61.65214 6960 ft 149 kts 129°
2026-05-05 19:43 16.35485 -61.64411 6960 ft 149 kts 129°
2026-05-05 19:43 16.34790 -61.63603 6959 ft 151 kts 129°
2026-05-05 19:44 16.34087 -61.62788 6963 ft 151 kts 130°
2026-05-05 19:44 16.33384 -61.61973 6964 ft 151 kts 130°
2026-05-05 19:44 16.32683 -61.61161 6958 ft 150 kts 130°
2026-05-05 19:44 16.31987 -61.60357 6957 ft 149 kts 129°
2026-05-05 19:45 16.31299 -61.59556 6956 ft 148 kts 129°
2026-05-05 19:45 16.30615 -61.58756 6958 ft 148 kts 129°
2026-05-05 19:45 16.29930 -61.57963 6959 ft 147 kts 130°
2026-05-05 19:45 16.29250 -61.57174 6961 ft 146 kts 129°
2026-05-05 19:46 16.28572 -61.56388 6962 ft 146 kts 129°
2026-05-05 19:46 16.27896 -61.55606 6961 ft 146 kts 130°
2026-05-05 19:46 16.27218 -61.54817 6960 ft 147 kts 130°
2026-05-05 19:46 16.26487 -61.54077 6967 ft 148 kts 142°
2026-05-05 19:47 16.25528 -61.53695 6964 ft 152 kts 162°
2026-05-05 19:47 16.24504 -61.53407 6969 ft 152 kts 158°
2026-05-05 19:47 16.23500 -61.53056 6964 ft 152 kts 157°
2026-05-05 19:47 16.22499 -61.52686 6967 ft 154 kts 156°
2026-05-05 19:48 16.21486 -61.52316 6962 ft 155 kts 158°
2026-05-05 19:48 16.20468 -61.51953 6958 ft 155 kts 158°
2026-05-05 19:48 16.19452 -61.51600 6959 ft 154 kts 158°
2026-05-05 19:48 16.18437 -61.51245 6958 ft 154 kts 158°
2026-05-05 19:49 16.17418 -61.50892 6958 ft 154 kts 158°
2026-05-05 19:49 16.16404 -61.50543 6947 ft 153 kts 157°
2026-05-05 19:49 16.15397 -61.50205 6949 ft 151 kts 157°
2026-05-05 19:49 16.14401 -61.49864 6952 ft 150 kts 157°
2026-05-05 19:50 16.13408 -61.49521 6955 ft 150 kts 157°
2026-05-05 19:50 16.12418 -61.49179 6957 ft 150 kts 156°
2026-05-05 19:50 16.11426 -61.48835 6957 ft 151 kts 157°
2026-05-05 19:50 16.10428 -61.48490 6956 ft 151 kts 157°
2026-05-05 19:51 16.09429 -61.48147 6954 ft 151 kts 157°
2026-05-05 19:51 16.08429 -61.47805 6954 ft 151 kts 157°
2026-05-05 19:51 16.07430 -61.47463 6959 ft 151 kts 157°
2026-05-05 19:51 16.06431 -61.47121 6958 ft 151 kts 157°
2026-05-05 19:52 16.05434 -61.46779 6957 ft 151 kts 157°
2026-05-05 19:52 16.04435 -61.46436 6956 ft 151 kts 157°
2026-05-05 19:52 16.03436 -61.46091 6956 ft 151 kts 158°
2026-05-05 19:52 16.02433 -61.45746 6956 ft 152 kts 158°
2026-05-05 19:53 16.01429 -61.45404 6957 ft 152 kts 157°
2026-05-05 19:53 16.00423 -61.45062 6964 ft 152 kts 156°
2026-05-05 19:53 15.99433 -61.44724 6962 ft 152 kts 157°
2026-05-05 19:53 15.98432 -61.44381 6963 ft 152 kts 156°
2026-05-05 19:54 15.97432 -61.44040 6960 ft 151 kts 156°
2026-05-05 19:54 15.96435 -61.43694 6961 ft 151 kts 158°
2026-05-05 19:54 15.95431 -61.43346 6964 ft 153 kts 158°
2026-05-05 19:54 15.94416 -61.42999 6962 ft 154 kts 158°
2026-05-05 19:55 15.93400 -61.42653 6964 ft 154 kts 157°
2026-05-05 19:55 15.92386 -61.42311 6962 ft 153 kts 158°
2026-05-05 19:55 15.91372 -61.41962 6966 ft 154 kts 158°
2026-05-05 19:55 15.90354 -61.41614 6963 ft 154 kts 158°
2026-05-05 19:56 15.89338 -61.41271 6965 ft 153 kts 157°
2026-05-05 19:56 15.88333 -61.40929 6964 ft 152 kts 156°
2026-05-05 19:56 15.87331 -61.40579 6963 ft 152 kts 156°
2026-05-05 19:56 15.86328 -61.40233 6966 ft 151 kts 156°
2026-05-05 19:57 15.85329 -61.39894 6964 ft 151 kts 156°
2026-05-05 19:57 15.84333 -61.39553 6965 ft 150 kts 156°
2026-05-05 19:57 15.83337 -61.39208 6968 ft 151 kts 157°
2026-05-05 19:57 15.82337 -61.38863 6968 ft 152 kts 158°
2026-05-05 19:58 15.81344 -61.38524 6971 ft 152 kts 158°
2026-05-05 19:58 15.80322 -61.38176 6971 ft 153 kts 158°
2026-05-05 19:58 15.79311 -61.37832 6973 ft 153 kts 156°
2026-05-05 19:58 15.78302 -61.37491 6975 ft 152 kts 157°
2026-05-05 19:59 15.77295 -61.37145 6974 ft 153 kts 158°
2026-05-05 19:59 15.76299 -61.36802 6972 ft 153 kts 158°
2026-05-05 19:59 15.75285 -61.36455 6974 ft 154 kts 158°
2026-05-05 19:59 15.74267 -61.36107 6976 ft 154 kts 158°
2026-05-05 20:00 15.73249 -61.35760 6976 ft 154 kts 158°
2026-05-05 20:00 15.72230 -61.35413 6978 ft 154 kts 158°
2026-05-05 20:00 15.71213 -61.35065 6978 ft 154 kts 158°
2026-05-05 20:00 15.70194 -61.34717 6979 ft 154 kts 158°
2026-05-05 20:01 15.69176 -61.34368 6984 ft 154 kts 158°
2026-05-05 20:01 15.68159 -61.34022 6988 ft 154 kts 158°
2026-05-05 20:01 15.67140 -61.33675 6987 ft 154 kts 158°
2026-05-05 20:01 15.66121 -61.33326 6988 ft 154 kts 158°
2026-05-05 20:02 15.65098 -61.32977 6991 ft 155 kts 158°
2026-05-05 20:02 15.64076 -61.32633 6988 ft 154 kts 157°
2026-05-05 20:02 15.63059 -61.32288 6988 ft 153 kts 158°
2026-05-05 20:02 15.62051 -61.31944 6990 ft 152 kts 157°
2026-05-05 20:03 15.61041 -61.31595 6986 ft 153 kts 158°
2026-05-05 20:03 15.60032 -61.31251 6987 ft 153 kts 157°
2026-05-05 20:03 15.59027 -61.30910 6987 ft 151 kts 157°
2026-05-05 20:03 15.58024 -61.30569 6996 ft 152 kts 157°
2026-05-05 20:04 15.57018 -61.30225 6997 ft 153 kts 157°
2026-05-05 20:04 15.56001 -61.29873 6992 ft 155 kts 158°
2026-05-05 20:04 15.54962 -61.29579 6988 ft 156 kts 166°
2026-05-05 20:04 15.53882 -61.29569 6985 ft 158 kts 176°
2026-05-05 20:05 15.52787 -61.29581 6988 ft 157 kts 174°
2026-05-05 20:05 15.51696 -61.29553 6994 ft 157 kts 173°
2026-05-05 20:05 15.50601 -61.29518 7005 ft 158 kts 173°
2026-05-05 20:05 15.49496 -61.29484 6991 ft 159 kts 173°
2026-05-05 20:06 15.48394 -61.29455 6975 ft 157 kts 174°
2026-05-05 20:06 15.47300 -61.29428 6991 ft 157 kts 174°
2026-05-05 20:06 15.46204 -61.29405 6936 ft 158 kts 174°
2026-05-05 20:06 15.45104 -61.29384 6938 ft 158 kts 173°
2026-05-05 20:07 15.44010 -61.29358 6933 ft 157 kts 173°
2026-05-05 20:07 15.42920 -61.29333 6937 ft 157 kts 175°
2026-05-05 20:07 15.41826 -61.29314 6936 ft 157 kts 174°
2026-05-05 20:07 15.40730 -61.29296 6939 ft 158 kts 174°
2026-05-05 20:08 15.39632 -61.29278 6940 ft 158 kts 175°
2026-05-05 20:08 15.38530 -61.29256 6938 ft 159 kts 175°
2026-05-05 20:08 15.37427 -61.29237 6937 ft 158 kts 173°
2026-05-05 20:08 15.36327 -61.29217 6935 ft 158 kts 174°
2026-05-05 20:09 15.35232 -61.29194 6936 ft 157 kts 174°
2026-05-05 20:09 15.34148 -61.29175 6891 ft 154 kts 173°
2026-05-05 20:09 15.33084 -61.29148 6924 ft 153 kts 173°
2026-05-05 20:09 15.32031 -61.29132 6930 ft 154 kts 173°
2026-05-05 20:10 15.30965 -61.29117 6924 ft 152 kts 173°
2026-05-05 20:10 15.29889 -61.29089 6946 ft 154 kts 173°
2026-05-05 20:10 15.28830 -61.29066 6938 ft 155 kts 174°
2026-05-05 20:10 15.27733 -61.29046 6930 ft 156 kts 174°
2026-05-05 20:11 15.26683 -61.28995 6904 ft 152 kts 172°
2026-05-05 20:11 15.25619 -61.28969 6937 ft 154 kts 174°
2026-05-05 20:11 15.24539 -61.28976 6919 ft 156 kts 175°
2026-05-05 20:11 15.23452 -61.28973 6915 ft 156 kts 175°
2026-05-05 20:12 15.22362 -61.28955 6906 ft 156 kts 174°
2026-05-05 20:12 15.21275 -61.28934 6912 ft 156 kts 174°
2026-05-05 20:12 15.20190 -61.28913 6914 ft 156 kts 174°
2026-05-05 20:12 15.19106 -61.28892 6918 ft 155 kts 173°
2026-05-05 20:13 15.18030 -61.28870 6924 ft 155 kts 173°
2026-05-05 20:13 15.16956 -61.28851 6924 ft 154 kts 173°
2026-05-05 20:13 15.15885 -61.28828 6925 ft 154 kts 174°
2026-05-05 20:13 15.14811 -61.28806 6929 ft 154 kts 174°
2026-05-05 20:14 15.13738 -61.28785 6932 ft 154 kts 173°
2026-05-05 20:14 15.12665 -61.28766 6935 ft 154 kts 173°
2026-05-05 20:14 15.11589 -61.28745 6936 ft 155 kts 174°
2026-05-05 20:14 15.10514 -61.28726 6933 ft 154 kts 173°
2026-05-05 20:15 15.09442 -61.28706 6935 ft 154 kts 173°
2026-05-05 20:15 15.08375 -61.28687 6935 ft 153 kts 174°
2026-05-05 20:15 15.07306 -61.28662 6939 ft 154 kts 173°
2026-05-05 20:15 15.06250 -61.28641 6942 ft 154 kts 173°
2026-05-05 20:16 15.05180 -61.28621 6944 ft 154 kts 174°
2026-05-05 20:16 15.04110 -61.28598 6946 ft 155 kts 175°
2026-05-05 20:16 15.03032 -61.28577 6945 ft 155 kts 175°
2026-05-05 20:16 15.01955 -61.28557 6946 ft 155 kts 175°
2026-05-05 20:17 15.00873 -61.28536 6951 ft 156 kts 175°
2026-05-05 20:17 14.99789 -61.28517 6952 ft 156 kts 175°
2026-05-05 20:17 14.98704 -61.28498 6951 ft 156 kts 174°
2026-05-05 20:17 14.97625 -61.28478 6952 ft 155 kts 174°
2026-05-05 20:18 14.96547 -61.28458 6952 ft 155 kts 175°
2026-05-05 20:18 14.95467 -61.28436 6952 ft 155 kts 175°
2026-05-05 20:18 14.94388 -61.28415 6952 ft 155 kts 175°
2026-05-05 20:18 14.93308 -61.28395 6949 ft 155 kts 175°
2026-05-05 20:19 14.92233 -61.28376 6944 ft 154 kts 174°
2026-05-05 20:19 14.91160 -61.28356 6946 ft 154 kts 174°
2026-05-05 20:19 14.90083 -61.28334 6947 ft 155 kts 174°
2026-05-05 20:19 14.89004 -61.28313 6949 ft 155 kts 175°
2026-05-05 20:20 14.87924 -61.28294 6949 ft 155 kts 174°
2026-05-05 20:20 14.86841 -61.28273 6948 ft 156 kts 174°
2026-05-05 20:20 14.85756 -61.28253 6950 ft 156 kts 174°
2026-05-05 20:20 14.84672 -61.28234 6947 ft 156 kts 174°
2026-05-05 20:21 14.83587 -61.28212 6946 ft 156 kts 175°
2026-05-05 20:21 14.82504 -61.28192 6945 ft 155 kts 174°
2026-05-05 20:21 14.81421 -61.28171 6949 ft 156 kts 175°
2026-05-05 20:21 14.80339 -61.28151 6945 ft 156 kts 174°
2026-05-05 20:22 14.79255 -61.28130 6938 ft 156 kts 175°
2026-05-05 20:22 14.78170 -61.28109 6939 ft 156 kts 174°
2026-05-05 20:22 14.77088 -61.28090 6940 ft 155 kts 174°
2026-05-05 20:22 14.76007 -61.28069 6940 ft 156 kts 175°
2026-05-05 20:23 14.74938 -61.28047 6943 ft 156 kts 175°
2026-05-05 20:23 14.73854 -61.28030 6939 ft 155 kts 174°
2026-05-05 20:23 14.72775 -61.28009 6937 ft 155 kts 173°
2026-05-05 20:23 14.71698 -61.27989 6942 ft 155 kts 173°
2026-05-05 20:24 14.70623 -61.27970 6937 ft 154 kts 173°
2026-05-05 20:24 14.69555 -61.27949 6935 ft 153 kts 173°
2026-05-05 20:24 14.68488 -61.27926 6942 ft 154 kts 174°
2026-05-05 20:24 14.67414 -61.27905 6936 ft 155 kts 175°
2026-05-05 20:25 14.66336 -61.27886 6942 ft 155 kts 174°
2026-05-05 20:25 14.65254 -61.27867 6941 ft 156 kts 174°
2026-05-05 20:25 14.64169 -61.27846 6945 ft 156 kts 173°
2026-05-05 20:25 14.63080 -61.27826 6939 ft 157 kts 175°
2026-05-05 20:26 14.61988 -61.27806 6933 ft 157 kts 175°
2026-05-05 20:26 14.61266 -61.27793 6932 ft 157 kts 175°
2026-05-05 20:26 14.60173 -61.27772 6938 ft 157 kts 175°
2026-05-05 20:26 14.59083 -61.27754 6935 ft 156 kts 174°
2026-05-05 20:27 14.57994 -61.27732 6935 ft 157 kts 175°
2026-05-05 20:27 14.56907 -61.27713 6938 ft 156 kts 175°
2026-05-05 20:27 14.55873 -61.27497 6933 ft 150 kts 148°
2026-05-05 20:27 14.55158 -61.26760 6931 ft 146 kts 118°
2026-05-05 20:28 14.54947 -61.25744 6933 ft 148 kts 87°
2026-05-05 20:28 14.55118 -61.24688 6941 ft 150 kts 84°
2026-05-05 20:28 14.55253 -61.23622 6942 ft 151 kts 86°
2026-05-05 20:28 14.55377 -61.22549 6936 ft 150 kts 86°
2026-05-05 20:29 14.55504 -61.21477 6937 ft 151 kts 86°
2026-05-05 20:29 14.55638 -61.20403 6937 ft 151 kts 85°
2026-05-05 20:29 14.55817 -61.19331 6933 ft 152 kts 82°
2026-05-05 20:29 14.56031 -61.18265 6933 ft 151 kts 82°
2026-05-05 20:30 14.56215 -61.17198 6937 ft 151 kts 83°
2026-05-05 20:30 14.56389 -61.16131 6936 ft 151 kts 83°
2026-05-05 20:30 14.56574 -61.15060 6934 ft 152 kts 83°
2026-05-05 20:30 14.56757 -61.13992 6930 ft 151 kts 83°
2026-05-05 20:31 14.56940 -61.12933 6932 ft 149 kts 83°
2026-05-05 20:31 14.57118 -61.11881 6933 ft 149 kts 83°
2026-05-05 20:31 14.57300 -61.10829 6932 ft 149 kts 84°
2026-05-05 20:31 14.57481 -61.09775 6939 ft 150 kts 83°
2026-05-05 20:32 14.57665 -61.08703 6854 ft 156 kts 83°
2026-05-05 20:32 14.57853 -61.07591 6690 ft 162 kts 84°
2026-05-05 20:32 14.58052 -61.06433 6528 ft 166 kts 83°
2026-05-05 20:32 14.58232 -61.05256 6375 ft 166 kts 88°
2026-05-05 20:33 14.58316 -61.04059 6200 ft 168 kts 89°
2026-05-05 20:33 14.58424 -61.02854 6027 ft 169 kts 87°
2026-05-05 20:33 14.58537 -61.01650 5863 ft 168 kts 86°
2026-05-05 20:33 14.58677 -61.00450 5682 ft 169 kts 85°
2026-05-05 20:34 14.58848 -60.99248 5501 ft 169 kts 84°
2026-05-05 20:34 14.59037 -60.98051 5331 ft 169 kts 83°
2026-05-05 20:34 14.59234 -60.96862 5159 ft 167 kts 83°
2026-05-05 20:34 14.59435 -60.95682 4993 ft 167 kts 83°
2026-05-05 20:35 14.59634 -60.94500 4839 ft 168 kts 83°
2026-05-05 20:35 14.59824 -60.93310 4674 ft 168 kts 83°
2026-05-05 20:35 14.60029 -60.92118 4510 ft 169 kts 83°
2026-05-05 20:35 14.60225 -60.90928 4336 ft 167 kts 82°
2026-05-05 20:36 14.60466 -60.89753 4158 ft 168 kts 79°
2026-05-05 20:36 14.60728 -60.88578 3982 ft 168 kts 79°
2026-05-05 20:36 14.61052 -60.87435 3802 ft 168 kts 64°
2026-05-05 20:36 14.61948 -60.86648 3633 ft 174 kts 33°
2026-05-05 20:37 14.63010 -60.86059 3465 ft 173 kts 31°
2026-05-05 20:37 14.64089 -60.85502 3298 ft 173 kts 31°
2026-05-05 20:37 14.65168 -60.84962 3131 ft 172 kts 29°
2026-05-05 20:37 14.66238 -60.84446 3033 ft 167 kts 30°
2026-05-05 20:38 14.67272 -60.83942 2984 ft 162 kts 30°
2026-05-05 20:38 14.68286 -60.83457 2957 ft 159 kts 30°
2026-05-05 20:38 14.69272 -60.82958 2949 ft 156 kts 36°
2026-05-05 20:38 14.69834 -60.82109 2939 ft 144 kts 86°
2026-05-05 20:39 14.69456 -60.81204 2939 ft 145 kts 139°
2026-05-05 20:39 14.68466 -60.81031 2940 ft 156 kts 191°
2026-05-05 20:39 14.67484 -60.81523 2955 ft 161 kts 203°
2026-05-05 20:39 14.66497 -60.82086 2957 ft 163 kts 206°
2026-05-05 20:40 14.65523 -60.82707 2945 ft 166 kts 207°
2026-05-05 20:40 14.64547 -60.83351 2952 ft 167 kts 207°
2026-05-05 20:40 14.63568 -60.84000 2936 ft 166 kts 208°
2026-05-05 20:40 14.62646 -60.84719 2944 ft 169 kts 221°
2026-05-05 20:41 14.61920 -60.85681 2942 ft 171 kts 236°
2026-05-05 20:41 14.61450 -60.86802 2885 ft 170 kts 253°
2026-05-05 20:41 14.61226 -60.87980 2774 ft 166 kts 260°
2026-05-05 20:41 14.61049 -60.89122 2559 ft 157 kts 260°
2026-05-05 20:42 14.60863 -60.90194 2292 ft 147 kts 258°
2026-05-05 20:42 14.60671 -60.91208 2056 ft 143 kts 257°
2026-05-05 20:42 14.60491 -60.92210 1798 ft 142 kts 260°
2026-05-05 20:42 14.60317 -60.93216 1582 ft 143 kts 259°
2026-05-05 20:43 14.60151 -60.94221 1336 ft 140 kts 259°
2026-05-05 20:43 14.59988 -60.95200 1117 ft 137 kts 259°
2026-05-05 20:43 14.59821 -60.96167 913 ft 136 kts 259°
2026-05-05 20:43 14.59657 -60.97106 674 ft 130 kts 257°
2026-05-05 20:44 14.59509 -60.98019 394 ft 128 kts 255°
2026-05-05 20:44 14.59348 -60.98911 139 ft 126 kts 255°
2026-05-05 20:44 14.59199 -60.99776 11 ft 116 kts 258°
2026-05-05 20:44 14.59076 -61.00484 3 ft 76 kts 260°
2026-05-05 20:45 14.59029 -61.00845 7 ft 4 kts 92°
2026-05-05 20:45 14.59027 -61.00764 7 ft 17 kts 85°
2026-05-05 20:45 14.59053 -61.00649 5 ft 8 kts 75°
2026-05-05 20:46 14.59069 -61.00554 3 ft 26 kts 81°
2026-05-05 20:46 14.59110 -61.00288 4 ft 46 kts 79°
2026-05-05 20:46 14.59155 -61.00047 4 ft 19 kts 65°
2026-05-05 20:46 14.59276 -61.00030 5 ft 21 kts 350°
2026-05-05 20:47 14.59390 -61.00121 5 ft 26 kts 296°
2026-05-05 20:47 14.59526 -61.00272 5 ft 29 kts 326°
2026-05-05 20:47 14.59615 -61.00313 5 ft 7 kts 12°
2026-05-05 20:47 14.59661 -61.00284 5 ft 4 kts 104°
2026-05-05 20:48 14.59657 -61.00280 5 ft 0 kts 169°